Scottsbluff, NE

7:17 PM MST on November 15, 2019 (GMT -0700)
Heilig

Weather History for KBFF - September, 2019

Change the Weather History Date:

Saturday, September 14, 2019

  Actual Average Record
Temperature  
Mean Temperature 66 °F -  
Max Temperature 88 °F 76 °F 95 °F (1935)
Min Temperature 45 °F 45 °F 26 °F (1904)
Cooling Degree Days 2    
Growing Degree Days 16 (Base 50)    
Moisture  
Dew Point 44 °F    
Average Humidity 42    
Maximum Humidity 69    
Minimum Humidity 9    
Precipitation  
Precipitation 0.00 in - - ()
Sea Level Pressure  
Sea Level Pressure 30.00 in    
Wind  
Wind Speed 5 mph (NNW)    
Max Wind Speed 12 mph    
Max Gust Speed 17 mph    
Visibility 10 miles    
Events      
Averages and records for this station are not official NWS values.
T = Trace of Precipitation, MM = Missing Value Source: NWS Daily Summary

Daily Weather History Graph

Daily Weather History Graph

Search for Another Location

Airport or City:

Astronomy

Sep. 14, 2019 Rise Set
Actual Time 6:33 AM MDT 7:05 PM MDT
Civil Twilight 6:05 AM MDT 7:33 PM MDT
Nautical Twilight 5:32 AM MDT 8:06 PM MDT
Astronomical Twilight 4:58 AM MDT 8:40 PM MDT
Moon 7:48 PM MDT (9/14) 6:48 AM MDT (9/14)
Length of Visible Light 13h 28m
Length of Day
12h 32m
Full, 100% of the Moon is Illuminated
Sep 14
Full
Sep 21
Last Quarter
Sep 28
New
Oct 5
First Quarter
Oct 13
Full

Hourly Weather History & Observations

Time (MDT) Temp. Dew Point Humidity Pressure Visibility Wind Dir Wind Speed Gust Speed Precip Events Conditions
12:53 AM 54.0 °F - N/A% 30.01 in 10.0 mi NE 4.6 mph - N/A   Clear
1:53 AM 50.0 °F - N/A% 30.02 in 10.0 mi NNW 5.8 mph - N/A   Clear
2:53 AM 48.0 °F - N/A% 30.01 in 10.0 mi NNE 3.5 mph - N/A   Clear
3:53 AM 48.0 °F - N/A% 30.00 in 10.0 mi NNE 4.6 mph - N/A   Clear
4:53 AM 48.0 °F - N/A% 30.01 in 10.0 mi Calm Calm - N/A   Clear
5:53 AM 46.9 °F - N/A% 30.02 in 10.0 mi North 5.8 mph - N/A   Clear
6:53 AM 48.9 °F - N/A% 30.05 in 10.0 mi Calm Calm - N/A   Clear
7:53 AM 54.0 °F - N/A% 30.06 in 10.0 mi WNW 3.5 mph - N/A   Clear
8:53 AM 62.1 °F - N/A% 30.06 in 10.0 mi WNW 4.6 mph - N/A   Clear
9:53 AM 71.1 °F - N/A% 30.04 in 10.0 mi WNW 10.4 mph - N/A   Clear
10:53 AM 77.0 °F - N/A% 30.02 in 10.0 mi WNW 8.1 mph - N/A   Clear
11:53 AM 81.0 °F - N/A% 30.01 in 10.0 mi WNW 10.4 mph - N/A   Clear
12:53 PM 84.9 °F - N/A% 29.99 in 10.0 mi West 11.5 mph - N/A   Clear
1:53 PM 84.9 °F - N/A% 29.98 in 10.0 mi WNW 8.1 mph - N/A   Clear
2:53 PM 87.1 °F - N/A% 29.96 in 10.0 mi West 10.4 mph 17.3 mph N/A   Clear
3:53 PM 87.1 °F 39.0 °F 18% 29.95 in 10.0 mi WSW 9.2 mph - N/A   Clear
4:53 PM 88.0 °F 37.9 °F 17% 29.95 in 10.0 mi North 8.1 mph - N/A   Clear
5:53 PM 84.0 °F 45.0 °F 25% 29.96 in 10.0 mi Calm Calm - N/A   Clear
6:53 PM 75.0 °F 48.9 °F 40% 29.97 in 10.0 mi SSE 5.8 mph - N/A   Clear
7:53 PM 64.9 °F 51.1 °F 61% 29.99 in 10.0 mi East 5.8 mph - N/A   Clear
8:53 PM 64.0 °F 48.9 °F 58% 29.99 in 10.0 mi East 6.9 mph - N/A   Clear
9:53 PM 62.1 °F 48.0 °F 60% 29.99 in 10.0 mi East 3.5 mph - N/A   Clear
10:53 PM 59.0 °F 48.0 °F 67% 29.99 in 10.0 mi East 6.9 mph - N/A   Clear
11:53 PM 57.0 °F 46.9 °F 69% 29.98 in 10.0 mi East 4.6 mph - N/A   Clear